| time (UTC) | temp F | wind direction | speed MPH | gust MPH | rain 1hr in | rain 24hr in | rain mn in | humidity % | barometer mb |
| 20260505180003 | 71 | 320 | 1.0 | 2.0 | 0.00 | 0.00 | 0.00 | 61 | 1004.0 |
| 20260505175403 | 71 | 291 | 0.0 | 2.0 | 0.00 | 0.00 | 0.00 | 59 | 1004.1 |
| 20260505174504 | 71 | 332 | 1.0 | 2.0 | 0.00 | 0.00 | 0.00 | 56 | 1003.7 |
| 20260505173603 | 72 | 344 | 0.0 | 1.0 | 0.00 | 0.00 | 0.00 | 46 | 1003.9 |
| 20260505172703 | 73 | 346 | 0.0 | 2.0 | 0.00 | 0.00 | 0.00 | 44 | 1003.8 |
| 20260505170903 | 74 | 334 | 0.0 | 2.0 | 0.00 | 0.00 | 0.00 | 41 | 1003.8 |
| 20260505170003 | 75 | 319 | 0.0 | 2.0 | 0.00 | 0.00 | 0.00 | 40 | 1003.8 |
| 20260505165617 | 76 | 318 | 0.0 | 2.0 | 0.00 | 0.00 | 0.00 | 39 | 1003.8 |
| 20260505164503 | 77 | 330 | 0.0 | 1.0 | 0.00 | 0.00 | 0.00 | 38 | 1003.5 |
| 20260505163603 | 78 | 349 | 0.0 | 2.0 | 0.00 | 0.00 | 0.00 | 38 | 1003.8 |
| 20260505162703 | 79 | 24 | 0.0 | 1.0 | 0.00 | 0.00 | 0.00 | 35 | 1003.8 |
| 20260505161803 | 79 | 0 | 0.0 | 0.0 | 0.00 | 0.00 | 0.00 | 33 | 1003.8 |
| 20260505152703 | 83 | 38 | 0.0 | 2.0 | 0.00 | 0.00 | 0.00 | 30 | 1004.3 |
| 20260505151803 | 83 | 70 | 0.0 | 2.0 | 0.00 | 0.00 | 0.00 | 30 | 1004.3 |
| 20260505150903 | 85 | 51 | 0.0 | 1.0 | 0.00 | 0.00 | 0.00 | 29 | 1004.2 |
| 20260505150217 | 85 | 277 | 0.0 | 1.0 | 0.00 | 0.00 | 0.00 | 29 | 1004.4 |
| 20260505140217 | 83 | 297 | 1.0 | 3.0 | 0.00 | 0.00 | 0.00 | 33 | 1004.6 |
| 20260505124503 | 83 | 207 | 1.0 | 2.0 | 0.00 | 0.00 | 0.00 | 29 | 1005.2 |
| 20260505123603 | 85 | 309 | 1.0 | 3.0 | 0.00 | 0.00 | 0.00 | 26 | 1005.2 |
| 20260505122703 | 82 | 228 | 1.0 | 3.0 | 0.00 | 0.00 | 0.00 | 30 | 1005.4 |
| 20260505121803 | 82 | 221 | 2.0 | 4.0 | 0.00 | 0.00 | 0.00 | 31 | 1005.6 |
| 20260505120904 | 82 | 252 | 1.0 | 3.0 | 0.00 | 0.00 | 0.00 | 31 | 1005.7 |
| 20260505120004 | 83 | 245 | 1.0 | 3.0 | 0.00 | 0.00 | 0.00 | 31 | 1005.5 |
| 20260505115403 | 81 | 219 | 1.0 | 4.0 | 0.00 | 0.00 | 0.00 | 31 | 1005.4 |
| 20260505114503 | 82 | 189 | 1.0 | 2.0 | 0.00 | 0.00 | 0.00 | 30 | 1005.8 |
| 20260505113818 | 82 | 207 | 1.0 | 4.0 | 0.00 | 0.00 | 0.00 | 32 | 1005.6 |
| 20260505112704 | 82 | 142 | 1.0 | 3.0 | 0.00 | 0.00 | 0.00 | 33 | 1005.7 |
| 20260505111803 | 83 | 165 | 1.0 | 2.0 | 0.00 | 0.00 | 0.00 | 32 | 1005.7 |
| 20260505110903 | 81 | 233 | 1.0 | 2.0 | 0.00 | 0.00 | 0.00 | 35 | 1005.9 |
| 20260505101803 | 78 | 183 | 1.0 | 3.0 | 0.00 | 0.00 | 0.00 | 33 | 1006.5 |
| 20260505101120 | 79 | 186 | 2.0 | 6.0 | 0.00 | 0.00 | 0.00 | 36 | 1006.6 |
| 20260505100003 | 79 | 183 | 1.0 | 2.0 | 0.00 | 0.00 | 0.00 | 35 | 1006.6 |
| 20260505095403 | 79 | 183 | 1.0 | 2.0 | 0.00 | 0.00 | 0.00 | 35 | 1006.7 |
| 20260505094503 | 78 | 179 | 1.0 | 3.0 | 0.00 | 0.00 | 0.00 | 36 | 1006.8 |
| 20260505092703 | 78 | 211 | 0.0 | 2.0 | 0.00 | 0.00 | 0.00 | 41 | 1006.7 |
| 20260505091803 | 78 | 224 | 0.0 | 2.0 | 0.00 | 0.00 | 0.00 | 39 | 1006.8 |
| 20260505090219 | 76 | 54 | 1.0 | 3.0 | 0.00 | 0.00 | 0.00 | 47 | 1007.1 |
| 20260505085619 | 78 | 49 | 1.0 | 3.0 | 0.00 | 0.00 | 0.00 | 43 | 1007.5 |
| 20260505084503 | 74 | 223 | 0.0 | 2.0 | 0.00 | 0.00 | 0.00 | 49 | 1007.6 |
| 20260505083817 | 72 | 210 | 1.0 | 2.0 | 0.00 | 0.00 | 0.00 | 50 | 1007.5 |
| 20260505082703 | 75 | 0 | 0.0 | 0.0 | 0.00 | 0.00 | 0.00 | 50 | 1007.6 |
| 20260505080003 | 68 | 104 | 0.0 | 1.0 | 0.00 | 0.00 | 0.00 | 58 | 1007.9 |
| 20260505075403 | 68 | 104 | 0.0 | 1.0 | 0.00 | 0.00 | 0.00 | 59 | 1008.0 |
| 20260505074503 | 67 | 0 | 0.0 | 0.0 | 0.00 | 0.00 | 0.00 | 59 | 1008.0 |
| 20260505073603 | 67 | 0 | 0.0 | 0.0 | 0.00 | 0.00 | 0.00 | 59 | 1007.7 |
| 20260505072703 | 67 | 0 | 0.0 | 0.0 | 0.00 | 0.00 | 0.00 | 60 | 1007.9 |
| 20260505071803 | 66 | 0 | 0.0 | 0.0 | 0.00 | 0.00 | 0.00 | 61 | 1007.8 |
| 20260505070903 | 66 | 0 | 0.0 | 0.0 | 0.00 | 0.00 | 0.00 | 60 | 1007.9 |
| 20260505065403 | 67 | 0 | 0.0 | 0.0 | 0.00 | 0.00 | 0.00 | 59 | 1007.9 |
| 20260505064503 | 67 | 0 | 0.0 | 0.0 | 0.00 | 0.00 | 0.00 | 59 | 1008.2 |
| 20260505062704 | 66 | 54 | 0.0 | 2.0 | 0.00 | 0.00 | 0.00 | 62 | 1008.2 |
| 20260505061803 | 65 | 37 | 0.0 | 3.0 | 0.00 | 0.00 | 0.00 | 67 | 1008.2 |
| 20260505060903 | 65 | 14 | 0.0 | 1.0 | 0.00 | 0.00 | 0.00 | 68 | 1008.3 |
| 20260505060003 | 65 | 0 | 0.0 | 0.0 | 0.00 | 0.00 | 0.00 | 65 | 1008.3 |
| 20260505055403 | 65 | 100 | 0.0 | 1.0 | 0.00 | 0.00 | 0.00 | 68 | 1008.5 |
| 20260505054504 | 64 | 0 | 0.0 | 0.0 | 0.00 | 0.00 | 0.00 | 72 | 1008.4 |
| 20260505053603 | 63 | 0 | 0.0 | 0.0 | 0.00 | 0.00 | 0.00 | 72 | 1008.3 |
| 20260505052703 | 62 | 0 | 0.0 | 0.0 | 0.00 | 0.00 | 0.00 | 73 | 1008.6 |
| 20260505051805 | 62 | 114 | 0.0 | 1.0 | 0.00 | 0.00 | 0.00 | 74 | 1008.8 |
| 20260505050903 | 60 | 0 | 0.0 | 0.0 | 0.00 | 0.00 | 0.00 | 77 | 1008.7 |
| 20260505040904 | 50 | 0 | 0.0 | 0.0 | 0.00 | 0.00 | 0.00 | 91 | 1008.8 |
| 20260505040004 | 50 | 0 | 0.0 | 0.0 | 0.00 | 0.00 | 0.00 | 91 | 1009.0 |
| 20260505035403 | 50 | 0 | 0.0 | 0.0 | 0.00 | 0.00 | 0.00 | 91 | 1009.1 |
| 20260505034503 | 50 | 0 | 0.0 | 0.0 | 0.00 | 0.00 | 0.00 | 90 | 1009.0 |
| 20260505033603 | 51 | 0 | 0.0 | 0.0 | 0.00 | 0.00 | 0.00 | 90 | 1008.8 |
| 20260505032704 | 51 | 0 | 0.0 | 0.0 | 0.00 | 0.00 | 0.00 | 90 | 1008.9 |
| 20260505030903 | 51 | 0 | 0.0 | 0.0 | 0.00 | 0.00 | 0.00 | 90 | 1009.1 |
| 20260505030004 | 51 | 0 | 0.0 | 0.0 | 0.00 | 0.00 | 0.00 | 90 | 1009.2 |
| 20260505025403 | 51 | 0 | 0.0 | 0.0 | 0.00 | 0.00 | 0.00 | 90 | 1009.3 |
| 20260505024504 | 51 | 0 | 0.0 | 0.0 | 0.00 | 0.00 | 0.00 | 89 | 1009.3 |
| 20260505023819 | 51 | 0 | 0.0 | 0.0 | 0.00 | 0.00 | 0.00 | 89 | 1009.2 |
| 20260505022703 | 52 | 0 | 0.0 | 0.0 | 0.00 | 0.00 | 0.00 | 89 | 1009.4 |
| 20260505021804 | 52 | 0 | 0.0 | 0.0 | 0.00 | 0.00 | 0.00 | 89 | 1009.1 |
| 20260505021117 | 52 | 0 | 0.0 | 0.0 | 0.00 | 0.00 | 0.00 | 89 | 1009.4 |
| 20260505020004 | 52 | 0 | 0.0 | 0.0 | 0.00 | 0.00 | 0.00 | 89 | 1009.5 |
| 20260505015403 | 52 | 0 | 0.0 | 0.0 | 0.00 | 0.00 | 0.00 | 89 | 1009.6 |
| 20260505014503 | 52 | 0 | 0.0 | 0.0 | 0.00 | 0.00 | 0.00 | 90 | 1009.7 |
| 20260505013604 | 51 | 0 | 0.0 | 0.0 | 0.00 | 0.00 | 0.00 | 90 | 1009.5 |
| 20260505012703 | 51 | 0 | 0.0 | 0.0 | 0.00 | 0.00 | 0.00 | 90 | 1009.8 |
| 20260505011803 | 52 | 0 | 0.0 | 0.0 | 0.00 | 0.00 | 0.00 | 90 | 1009.6 |
| 20260505010903 | 51 | 0 | 0.0 | 0.0 | 0.00 | 0.00 | 0.00 | 91 | 1009.9 |
| 20260505010004 | 51 | 0 | 0.0 | 0.0 | 0.00 | 0.00 | 0.00 | 91 | 1009.7 |
| 20260505005403 | 51 | 0 | 0.0 | 0.0 | 0.00 | 0.00 | 0.00 | 90 | 1009.7 |
| 20260505004503 | 51 | 0 | 0.0 | 0.0 | 0.00 | 0.00 | 0.00 | 90 | 1009.7 |
| 20260505003604 | 52 | 0 | 0.0 | 0.0 | 0.00 | 0.00 | 0.00 | 90 | 1010.0 |
| 20260505002917 | 52 | 0 | 0.0 | 0.0 | 0.00 | 0.00 | 0.00 | 90 | 1010.0 |
| 20260505002017 | 52 | 0 | 0.0 | 0.0 | 0.00 | 0.00 | 0.00 | 89 | 1010.0 |
| 20260505000903 | 51 | 0 | 0.0 | 0.0 | 0.00 | 0.00 | 0.00 | 89 | 1010.1 |
| 20260505000004 | 51 | 0 | 0.0 | 0.0 | 0.00 | 0.00 | 0.00 | 90 | 1010.1 |
| 20260504235403 | 51 | 0 | 0.0 | 0.0 | 0.00 | 0.00 | 0.00 | 89 | 1010.2 |
| 20260504234503 | 51 | 0 | 0.0 | 0.0 | 0.00 | 0.00 | 0.00 | 89 | 1010.3 |
| 20260504233603 | 52 | 0 | 0.0 | 0.0 | 0.00 | 0.00 | 0.00 | 88 | 1010.6 |
| 20260504232703 | 52 | 0 | 0.0 | 0.0 | 0.00 | 0.00 | 0.00 | 88 | 1010.5 |
| 20260504232016 | 52 | 0 | 0.0 | 0.0 | 0.00 | 0.00 | 0.00 | 88 | 1010.4 |
| 20260504230903 | 53 | 0 | 0.0 | 0.0 | 0.00 | 0.00 | 0.00 | 88 | 1010.5 |
| 20260504230004 | 53 | 0 | 0.0 | 0.0 | 0.00 | 0.00 | 0.00 | 88 | 1010.6 |
| 20260504225403 | 52 | 0 | 0.0 | 0.0 | 0.00 | 0.00 | 0.00 | 88 | 1010.6 |
| 20260504224503 | 52 | 0 | 0.0 | 0.0 | 0.00 | 0.00 | 0.00 | 88 | 1010.5 |
| 20260504223603 | 52 | 0 | 0.0 | 0.0 | 0.00 | 0.00 | 0.00 | 88 | 1010.8 |
| 20260504222703 | 53 | 0 | 0.0 | 0.0 | 0.00 | 0.00 | 0.00 | 87 | 1010.9 |
| 20260504221803 | 53 | 0 | 0.0 | 0.0 | 0.00 | 0.00 | 0.00 | 87 | 1010.8 |
| 20260504220903 | 53 | 0 | 0.0 | 0.0 | 0.00 | 0.00 | 0.00 | 86 | 1010.5 |
| 20260504220004 | 53 | 0 | 0.0 | 0.0 | 0.00 | 0.00 | 0.00 | 86 | 1010.6 |
| 20260504215403 | 53 | 0 | 0.0 | 0.0 | 0.00 | 0.00 | 0.00 | 85 | 1010.8 |
| 20260504214718 | 54 | 0 | 0.0 | 0.0 | 0.00 | 0.00 | 0.00 | 84 | 1010.7 |
| 20260504210903 | 56 | 0 | 0.0 | 0.0 | 0.00 | 0.00 | 0.00 | 82 | 1010.7 |
| 20260504210004 | 56 | 0 | 0.0 | 0.0 | 0.00 | 0.00 | 0.00 | 80 | 1010.6 |
| 20260504205403 | 57 | 0 | 0.0 | 0.0 | 0.00 | 0.00 | 0.00 | 80 | 1010.6 |
| 20260504204717 | 57 | 0 | 0.0 | 0.0 | 0.00 | 0.00 | 0.00 | 79 | 1010.8 |
| 20260504203603 | 58 | 0 | 0.0 | 0.0 | 0.00 | 0.00 | 0.00 | 78 | 1010.7 |
| 20260504201803 | 58 | 0 | 0.0 | 0.0 | 0.00 | 0.00 | 0.00 | 77 | 1010.9 |
| 20260504200904 | 59 | 0 | 0.0 | 0.0 | 0.00 | 0.00 | 0.00 | 75 | 1010.6 |
| 20260504200004 | 60 | 0 | 0.0 | 0.0 | 0.00 | 0.00 | 0.00 | 73 | 1010.5 |
| 20260504195617 | 59 | 0 | 0.0 | 0.0 | 0.00 | 0.00 | 0.00 | 75 | 1010.5 |
| 20260504194503 | 60 | 0 | 0.0 | 0.0 | 0.00 | 0.00 | 0.00 | 72 | 1010.6 |
| 20260504193603 | 60 | 0 | 0.0 | 0.0 | 0.00 | 0.00 | 0.00 | 70 | 1010.6 |
| 20260504190903 | 61 | 0 | 0.0 | 0.0 | 0.00 | 0.00 | 0.00 | 69 | 1010.6 |
| 20260504190218 | 62 | 0 | 0.0 | 0.0 | 0.00 | 0.00 | 0.00 | 66 | 1010.3 |
| 20260504185617 | 63 | 0 | 0.0 | 0.0 | 0.00 | 0.00 | 0.00 | 63 | 1010.2 |
| 20260504182703 | 65 | 0 | 0.0 | 0.0 | 0.00 | 0.00 | 0.00 | 59 | 1010.2 |
| 20260504181803 | 66 | 0 | 0.0 | 0.0 | 0.00 | 0.00 | 0.00 | 59 | 1010.2 |
| 20260504180903 | 67 | 0 | 0.0 | 0.0 | 0.00 | 0.00 | 0.00 | 55 | 1010.2 |